[[{"header":{"parameterUnit":"m.s-1","parameterCategory":2,"la1":30.2991,"la2":30.254,"lo1":-89.0895,"lo2":-89.0444,"dy":0.0017,"dx":0.0017,"nx":28,"ny":28,"refTime":"2025-03-05T03:00:00:Z","depth":"0","parameterNumber":2,"parameterNumberName":"U-component_of_CURRENTS"},"data":[0,0,0,0,0,0,0,0,0,0,0,0,0,0,0,0,0,0,0,0,0,0,0,0,0,0,0,0,0,0,0,0,0,0,0,0,0,0,0,0,0,0,0,0,0,0,0,0,0,0,0,0,0,0,0,0,0,0,0.1053,0.1053,0,0.114,0.1142,0.1143,0.1235,0.1236,0.1237,0.1238,0.1243,0.1243,0.1242,0,0,0,0,0,0,0,0,0,0,0,0,0,0.0971,0.0973,0.1053,0.1053,0.1054,0.114,0.1142,0.1143,0.1235,0.1236,0.1237,0.1238,0.1244,0.1243,0.1242,0,0,0,0,0,0,0,0,0,0,0,0,0,0.1031,0.0973,0.1053,0.1107,0.1113,0.114,0.1142,0.1144,0.1235,0.1236,0.1238,0.1239,0.1244,0.1243,0.1242,0.1208,0,0,0.1239,0.1238,0,0,0,0,0,0,0,0,0.1028,0.1035,0.1099,0.1104,0.111,0.1175,0.1115,0.116,0.1235,0.1193,0.1238,0.124,0.1209,0.1211,0.1232,0.1208,0.1208,0.1239,0.1238,0.1237,0.1237,0,0,0,0,0,0,0,0.1024,0.1032,0.1092,0.1099,0.1106,0.1129,0.114,0.1125,0.1194,0.1197,0.1202,0.1205,0.1212,0.1232,0.1232,0.1209,0.1239,0.1238,0.1237,0.1237,0.1203,0.1202,0,0,0,0,0,0,0.1003,0.1028,0.1089,0.1094,0.1067,0.1129,0.1141,0.1156,0.1196,0.1203,0.1204,0.1209,0.1234,0.1233,0.1232,0.1218,0.1237,0.1236,0.1236,0.1203,0.1203,0.1202,0,0,0,0,0,0,0.1001,0.1008,0.1085,0.1059,0.107,0.1129,0.1145,0.1157,0.1165,0.1202,0.1208,0.1198,0.1235,0.1234,0.123,0.1217,0.1236,0.1235,0.1203,0.1203,0.1202,0.1172,0,0,0,0,0,0,0.0998,0.1007,0.101,0.1057,0.107,0.1092,0.1143,0.1157,0.1164,0.1171,0.1198,0.1202,0.1236,0.1231,0.1229,0.1216,0.1234,0.1204,0.1203,0.1203,0.1173,0.1171,0.1168,0,0,0,0,0,0.0995,0.1024,0.101,0.1017,0.1073,0.1091,0.1099,0.1149,0.1161,0.1162,0.1193,0.1201,0.1227,0.123,0.1227,0.1214,0.1204,0.1203,0.1203,0.1174,0.1171,0.1168,0,0,0,0,0,0,0.1016,0.1036,0.1023,0.106,0.1054,0.1105,0.1131,0.1127,0.1152,0.1167,0.119,0.1196,0.1181,0.1199,0.1202,0.1205,0.1217,0.1216,0.1197,0.1194,0.1191,0.1269,0.1233,0,0,0,0,0,0.1006,0.1021,0.1025,0.1048,0.1053,0.1071,0.1083,0.1098,0.1125,0.1139,0.115,0.1171,0.1176,0.1187,0.119,0.1186,0.1286,0.1179,0.1176,0.1174,0.1236,0.1319,0.1331,0.12,0.12,0.12,0,0,0.1012,0.1031,0.1035,0.1048,0.1068,0.1079,0.1086,0.1104,0.1121,0.1129,0.1161,0.1142,0.1167,0.1175,0.1172,0.1192,0.1274,0.1173,0.1171,0.1236,0.132,0.1334,0.1346,0.12,0.12,0.12,0,0,0.1058,0.1055,0.1083,0.107,0.1076,0.1085,0.1073,0.1089,0.1113,0.1109,0.1126,0.1121,0.1117,0.1158,0.1172,0.1154,0.1238,0.1124,0.1195,0.1272,0.1285,0.1297,0.1494,0.1524,0.1145,0.1144,0.1144,0,0.1057,0.1106,0.1089,0.1107,0.1108,0.108,0.1097,0.1112,0.1118,0.1149,0.1121,0.1146,0.1131,0.1186,0.1185,0.1152,0.1251,0.1198,0.1273,0.1287,0.13,0.1498,0.1532,0.1143,0.1143,0.1143,0.1143,0,0.1103,0.1142,0.1165,0.1171,0.1153,0.1171,0.1159,0.1161,0.1156,0.1175,0.1196,0.1184,0.1229,0.1181,0.1181,0.1253,0.1315,0.124,0.1287,0.1312,0.1519,0.1555,0.1141,0.1141,0.1142,0.1142,0,0,0.1119,0.1186,0.1193,0.123,0.1189,0.1203,0.1209,0.1242,0.132,0.1267,0.1371,0.1314,0.1317,0.1337,0.1309,0.1361,0.1519,0.1349,0.1354,0.1562,0.1799,0.1856,0.1901,0.1443,0.1447,0.1451,0.1926,0,0.1167,0.1255,0.1243,0.1305,0.1351,0.1304,0.1334,0.1341,0.1372,0.1464,0.1438,0.1516,0.1377,0.1423,0.1433,0.1508,0.1604,0.1406,0.1733,0.1747,0.1803,0.1939,0.2062,0.2494,0.1962,0.1968,0.1972,0,0.1215,0.128,0.1355,0.1441,0.1453,0.1462,0.153,0.156,0.1643,0.1677,0.1709,0.1722,0.1806,0.167,0.1837,0.1719,0.178,0.1816,0.1832,0.1932,0.1868,0.237,0.258,0.263,0.2028,0.2023,0.2019,0,0.1277,0.1369,0.1451,0.1454,0.1513,0.1547,0.158,0.1635,0.1715,0.186,0.1954,0.2007,0.2105,0.2131,0.2163,0.2042,0.2378,0.2223,0.2353,0.2363,0.2565,0.2583,0.288,0.2373,0.2372,0.2371,0.2369,0,0.1349,0.1408,0.1506,0.1547,0.1641,0.1651,0.1772,0.1818,0.1948,0.2066,0.2096,0.2219,0.2215,0.2359,0.2336,0.2509,0.2531,0.2463,0.2495,0.256,0.2571,0.2695,0.2653,0.2389,0.2385,0.2381,0.2378,0,0.1369,0.1441,0.1538,0.1644,0.1677,0.1737,0.1851,0.1949,0.2092,0.226,0.2326,0.248,0.2675,0.2711,0.2856,0.28,0.2926,0.2956,0.3094,0.3128,0.3224,0.3174,0.3281,0.3221,0.3235,0.324,0.3243,0,0.1389,0.1453,0.1582,0.1627,0.1668,0.1773,0.1828,0.1975,0.2079,0.2386,0.247,0.2763,0.2917,0.3234,0.3246,0.3389,0.3175,0.3547,0.328,0.3348,0.3317,0.2988,0.2901,0.3595,0.3601,0.3606,0.361,0,0.1418,0.1457,0.1536,0.1622,0.1696,0.1778,0.1899,0.2012,0.2199,0.2395,0.2671,0.2878,0.3235,0.3473,0.368,0.37,0.35,0.365,0.3688,0.3636,0.3341,0.3259,0.3226,0.3655,0.3651,0.3647,0.3645,0.3643,0.1417,0.1455,0.1563,0.1618,0.1687,0.177,0.1854,0.2015,0.222,0.2533,0.2734,0.3094,0.3597,0.3916,0.3911,0.4116,0.3793,0.4099,0.4063,0.374,0.3574,0.3681,0.41,0.4099,0.4097,0.4095,0.4094,0,0.1452,0.1491,0.1546,0.1636,0.1679,0.1726,0.1876,0.198,0.2203,0.2556,0.2839,0.3481,0.3922,0.4226,0.4624,0.4605,0.4248,0.4538,0.4173,0.4077,0.4262,0.4169,0.4659,0.4659,0.4659,0.4659,0.4659,0.4659,0.1481,0.1544,0.1558,0.1621,0.166,0.1742,0.1824,0.199,0.2243,0.2707,0.3109,0.3435,0.4147,0.4847,0.5115,0.4992,0.4661,0.4525,0.4333,0.4595,0.4549,0.4504,0.441,0.4942,0.4943,0.4048,0.4043,0.4039]},{"header":{"parameterUnit":"m.s-1","parameterCategory":2,"la1":30.2991,"la2":30.254,"lo1":-89.0895,"lo2":-89.0444,"dy":0.0017,"dx":0.0017,"nx":28,"ny":28,"refTime":"2025-03-05T03:00:00:Z","depth":"0","parameterNumber":3,"parameterNumberName":"V-component_of_CURRENTS"},"data":[0,0,0,0,0,0,0,0,0,0,0,0,0,0,0,0,0,0,0,0,0,0,0,0,0,0,0,0,0,0,0,0,0,0,0,0,0,0,0,0,0,0,0,0,0,0,0,0,0,0,0,0,0,0,0,0,0,0,-0.0406,-0.0407,0,-0.0483,-0.0485,-0.0486,-0.0575,-0.0576,-0.0576,-0.0577,-0.0622,-0.0623,-0.0624,0,0,0,0,0,0,0,0,0,0,0,0,0,-0.0356,-0.0358,-0.0406,-0.0407,-0.0407,-0.0483,-0.0485,-0.0486,-0.0575,-0.0576,-0.0576,-0.0577,-0.0622,-0.0623,-0.0624,0,0,0,0,0,0,0,0,0,0,0,0,0,-0.0408,-0.0358,-0.0406,-0.0454,-0.0459,-0.0482,-0.0485,-0.0487,-0.0575,-0.0576,-0.0577,-0.0578,-0.0622,-0.0623,-0.0624,-0.0611,0,0,-0.0627,-0.0627,0,0,0,0,0,0,0,0,-0.0405,-0.041,-0.0447,-0.0451,-0.0456,-0.0513,-0.0483,-0.0524,-0.0575,-0.0539,-0.0577,-0.0578,-0.0577,-0.0582,-0.0606,-0.0613,-0.0615,-0.0627,-0.0627,-0.0628,-0.0628,0,0,0,0,0,0,0,-0.0401,-0.0408,-0.0445,-0.0447,-0.0452,-0.0478,-0.0487,-0.0492,-0.0558,-0.0542,-0.0547,-0.0543,-0.0581,-0.0605,-0.0607,-0.0616,-0.0627,-0.0628,-0.0628,-0.0629,-0.0686,-0.0687,0,0,0,0,0,0,-0.0373,-0.0404,-0.0442,-0.0446,-0.0423,-0.0477,-0.0488,-0.0501,-0.0559,-0.0566,-0.0542,-0.0546,-0.0603,-0.0606,-0.0609,-0.061,-0.0628,-0.0629,-0.0629,-0.0685,-0.0687,-0.0688,0,0,0,0,0,0,-0.0372,-0.0377,-0.0439,-0.042,-0.0428,-0.0476,-0.049,-0.0501,-0.0514,-0.0557,-0.0566,-0.054,-0.0604,-0.0608,-0.0636,-0.0611,-0.0629,-0.063,-0.0684,-0.0686,-0.0687,-0.0602,0,0,0,0,0,0,-0.0371,-0.0377,-0.038,-0.0418,-0.0428,-0.0445,-0.0489,-0.0502,-0.0506,-0.0513,-0.0558,-0.0565,-0.0605,-0.0635,-0.0637,-0.0613,-0.0631,-0.0683,-0.0685,-0.0687,-0.0604,-0.06,-0.0598,0,0,0,0,0,-0.0369,-0.0376,-0.038,-0.0384,-0.0431,-0.0444,-0.0452,-0.0495,-0.0505,-0.051,-0.056,-0.0563,-0.0648,-0.0636,-0.0639,-0.0614,-0.0682,-0.0684,-0.0686,-0.0605,-0.0601,-0.0598,0,0,0,0,0,0,-0.0366,-0.0386,-0.0392,-0.0407,-0.0413,-0.0456,-0.0468,-0.0475,-0.0518,-0.0532,-0.0569,-0.058,-0.0592,-0.0625,-0.061,-0.0644,-0.0666,-0.0669,-0.0604,-0.06,-0.0597,-0.0607,-0.0632,0,0,0,0,0,-0.0358,-0.0362,-0.0381,-0.0385,-0.0394,-0.042,-0.0429,-0.045,-0.0485,-0.0505,-0.0529,-0.0573,-0.0604,-0.0619,-0.0652,-0.066,-0.0689,-0.0653,-0.065,-0.0647,-0.0662,-0.0703,-0.0704,-0.0695,-0.0695,-0.0695,0,0,-0.0346,-0.0363,-0.0359,-0.0381,-0.0401,-0.0404,-0.0431,-0.0443,-0.0456,-0.05,-0.0528,-0.0549,-0.0605,-0.063,-0.0638,-0.0652,-0.0658,-0.065,-0.0646,-0.0664,-0.0705,-0.0706,-0.0706,-0.0696,-0.0696,-0.0696,0,0,-0.0337,-0.035,-0.0356,-0.0358,-0.0374,-0.0388,-0.0378,-0.0405,-0.044,-0.046,-0.0499,-0.053,-0.0556,-0.0612,-0.0639,-0.0642,-0.0635,-0.0621,-0.0612,-0.065,-0.0651,-0.0652,-0.0649,-0.0651,-0.0625,-0.0625,-0.0625,0,-0.0321,-0.0339,-0.0354,-0.0362,-0.0352,-0.037,-0.0361,-0.0402,-0.0431,-0.045,-0.0465,-0.052,-0.0567,-0.0604,-0.062,-0.0633,-0.0627,-0.061,-0.0643,-0.0645,-0.0647,-0.0645,-0.0648,-0.0621,-0.0622,-0.0622,-0.0622,0,-0.0303,-0.0326,-0.033,-0.0339,-0.0326,-0.0325,-0.0353,-0.0362,-0.0381,-0.0413,-0.0443,-0.0512,-0.055,-0.0555,-0.0594,-0.0617,-0.0595,-0.0621,-0.064,-0.0642,-0.0641,-0.0645,-0.0616,-0.0617,-0.0618,-0.0619,0,0,-0.0253,-0.0308,-0.0309,-0.0314,-0.0312,-0.0299,-0.0317,-0.0336,-0.034,-0.0389,-0.0394,-0.0482,-0.0499,-0.0536,-0.0564,-0.0605,-0.0619,-0.061,-0.0613,-0.0586,-0.0648,-0.0621,-0.0623,-0.0621,-0.0622,-0.0623,-0.0624,0,-0.0237,-0.0254,-0.0272,-0.026,-0.0263,-0.0268,-0.0266,-0.0281,-0.0312,-0.0327,-0.0414,-0.0436,-0.0499,-0.0494,-0.0551,-0.0597,-0.0631,-0.0614,-0.0671,-0.0673,-0.0632,-0.063,-0.0602,-0.06,-0.0628,-0.0629,-0.063,0,-0.0213,-0.0229,-0.022,-0.0229,-0.0224,-0.02,-0.0169,-0.0181,-0.0225,-0.025,-0.0296,-0.0346,-0.0423,-0.0469,-0.0577,-0.0543,-0.0601,-0.0642,-0.0643,-0.066,-0.0657,-0.0615,-0.0607,-0.0816,-0.0637,-0.0636,-0.0636,0,-0.0158,-0.0194,-0.018,-0.0174,-0.0174,-0.0155,-0.0141,-0.0149,-0.012,-0.0197,-0.0156,-0.0285,-0.0292,-0.0417,-0.0523,-0.0542,-0.0606,-0.0656,-0.0685,-0.0681,-0.0699,-0.0696,-0.0892,-0.074,-0.074,-0.074,-0.074,0,-0.0129,-0.0121,-0.0157,-0.014,-0.0076,-0.0101,-0.0026,-0.0047,-0.0023,0.0056,-0.0106,-0.0046,-0.0272,-0.033,-0.0476,-0.0572,-0.0582,-0.0685,-0.069,-0.0665,-0.0658,-0.0876,-0.1028,-0.074,-0.074,-0.074,-0.074,0,-0.0064,-0.0099,-0.0077,-0.0077,-0.005,0.0004,0.0108,0.0162,0.0144,0.0254,0.0249,0.0158,0.0062,-0.0139,-0.0315,-0.0466,-0.0719,-0.063,-0.0563,-0.0563,-0.0824,-0.0972,-0.1153,-0.1296,-0.0695,-0.0694,-0.0694,0,-0.0034,-0.0026,0.0008,0.0074,0.0088,0.0169,0.026,0.0265,0.0356,0.0417,0.0502,0.0419,0.0425,0.0154,-0.017,-0.0432,-0.0651,-0.0573,-0.0656,-0.084,-0.101,-0.1074,-0.1188,-0.0628,-0.0627,-0.0626,-0.0625,0,0.0034,0.0044,0.0078,0.0217,0.0314,0.0437,0.0553,0.0665,0.0707,0.0799,0.0917,0.0913,0.0635,0.0384,-0.0009,-0.0235,-0.0753,-0.0565,-0.0794,-0.1015,-0.1064,-0.12,-0.0601,-0.0619,-0.0619,-0.062,-0.062,-0.0621,0.011,0.0167,0.0228,0.0382,0.0512,0.0699,0.0845,0.0983,0.1163,0.1355,0.1288,0.1395,0.0968,0.0416,-0.0002,-0.0659,-0.0701,-0.083,-0.0998,-0.1045,-0.1195,-0.056,-0.0567,-0.0567,-0.0568,-0.0568,-0.0568,0,0.0189,0.0268,0.0405,0.0588,0.0783,0.0815,0.1058,0.1233,0.1488,0.1678,0.1795,0.1784,0.1161,0.0519,-0.0388,-0.0945,-0.1201,-0.1252,-0.1382,-0.1488,-0.0943,-0.0955,-0.1,-0.1,-0.0999,-0.0999,-0.0999,-0.0999,0.0231,0.0373,0.0456,0.0795,0.0952,0.1239,0.1399,0.1648,0.1865,0.2227,0.243,0.2502,0.223,0.0377,-0.0908,-0.1328,-0.1798,-0.1853,-0.2094,-0.1763,-0.1737,-0.1713,-0.1759,-0.1972,-0.1974,-0.2547,-0.2553,-0.2558]}],[{"header":{"parameterUnit":"m.s-1","parameterCategory":2,"la1":30.2991,"la2":30.254,"lo1":-89.0895,"lo2":-89.0444,"dy":0.0017,"dx":0.0017,"nx":28,"ny":28,"refTime":"2025-03-05T03:00:00:Z","depth":"2","parameterNumber":2,"parameterNumberName":"U-component_of_CURRENTS"},"data":[0,0,0,0,0,0,0,0,0,0,0,0,0,0,0,0,0,0,0,0,0,0,0,0,0,0,0,0,0,0,0,0,0,0,0,0,0,0,0,0,0,0,0,0,0,0,0,0,0,0,0,0,0,0,0,0,0,0,0.1,0.1001,0,0.1096,0.1097,0.1099,0.1197,0.1198,0.1199,0.12,0.1204,0.1203,0.1202,0,0,0,0,0,0,0,0,0,0,0,0,0,0.0915,0.0917,0.1,0.1001,0.1002,0.1096,0.1097,0.1099,0.1197,0.1198,0.12,0.1201,0.1204,0.1203,0.1202,0,0,0,0,0,0,0,0,0,0,0,0,0,0.098,0.0917,0.1,0.1059,0.1064,0.1095,0.1097,0.11,0.1197,0.1198,0.12,0.1201,0.1204,0.1203,0.1202,0.1167,0,0,0.1198,0.1198,0,0,0,0,0,0,0,0,0.0976,0.0984,0.1049,0.1055,0.1061,0.1132,0.1069,0.1116,0.1197,0.1152,0.12,0.1202,0.1167,0.1169,0.1192,0.1167,0.1167,0.1198,0.1198,0.1197,0.1197,0,0,0,0,0,0,0,0.0971,0.098,0.1043,0.105,0.1057,0.1084,0.1095,0.1079,0.1152,0.1156,0.1162,0.1165,0.1171,0.1193,0.1192,0.1167,0.1198,0.1197,0.1197,0.1196,0.116,0.116,0,0,0,0,0,0,0.0948,0.0976,0.104,0.1045,0.1016,0.1084,0.1097,0.1112,0.1155,0.1162,0.1163,0.1169,0.1194,0.1194,0.1193,0.1177,0.1197,0.1196,0.1195,0.116,0.116,0.116,0,0,0,0,0,0,0.0946,0.0954,0.1036,0.1008,0.102,0.1083,0.11,0.1113,0.1124,0.1161,0.1168,0.1159,0.1195,0.1194,0.1189,0.1176,0.1196,0.1194,0.116,0.116,0.116,0.1129,0,0,0,0,0,0,0.0944,0.0953,0.0956,0.1007,0.1021,0.1045,0.1098,0.1113,0.1122,0.113,0.1158,0.1162,0.1196,0.1191,0.1188,0.1175,0.1194,0.1161,0.116,0.116,0.113,0.1128,0.1125,0,0,0,0,0,0.0941,0.0972,0.0956,0.0964,0.1024,0.1044,0.1053,0.1106,0.112,0.1122,0.1153,0.1161,0.1186,0.119,0.1186,0.1173,0.1161,0.116,0.116,0.1132,0.1128,0.1125,0,0,0,0,0,0,0.0961,0.0985,0.097,0.1011,0.1005,0.1059,0.1089,0.1084,0.1111,0.1127,0.115,0.1155,0.114,0.1158,0.1161,0.1163,0.1176,0.1175,0.1155,0.1152,0.115,0.1227,0.1193,0,0,0,0,0,0.0951,0.0971,0.0975,0.1,0.1006,0.1025,0.1039,0.1054,0.1082,0.1098,0.1108,0.113,0.1135,0.1146,0.1148,0.1144,0.1244,0.1136,0.1133,0.1131,0.1193,0.1276,0.1288,0.1158,0.1158,0.1158,0,0,0.0957,0.0979,0.0985,0.1001,0.1022,0.1032,0.1041,0.1062,0.1079,0.1087,0.112,0.1101,0.1125,0.1133,0.1129,0.1151,0.1231,0.113,0.1128,0.1193,0.1277,0.129,0.1302,0.1157,0.1157,0.1157,0,0,0.1006,0.1005,0.1038,0.1025,0.1032,0.1041,0.1028,0.1045,0.1072,0.1068,0.1085,0.1079,0.1075,0.1116,0.113,0.1112,0.1195,0.108,0.1151,0.1228,0.1241,0.1254,0.1451,0.1481,0.1101,0.1101,0.1101,0,0.1005,0.1057,0.1044,0.1064,0.1064,0.1035,0.1051,0.1069,0.1074,0.1106,0.1079,0.1103,0.1089,0.1144,0.1143,0.111,0.1208,0.1155,0.1229,0.1243,0.1256,0.1455,0.1488,0.11,0.11,0.11,0.11,0,0.1052,0.1095,0.1121,0.1128,0.1109,0.1127,0.1114,0.1118,0.1113,0.1131,0.1153,0.1143,0.1186,0.1138,0.1139,0.121,0.1271,0.1195,0.1243,0.1268,0.1476,0.1512,0.1097,0.1098,0.1099,0.1099,0,0,0.1068,0.1141,0.115,0.1188,0.1145,0.1159,0.1165,0.1196,0.1276,0.1222,0.1327,0.1271,0.1273,0.1293,0.1265,0.1318,0.1476,0.1305,0.131,0.1519,0.1755,0.1798,0.1843,0.1398,0.1402,0.1406,0.1883,0,0.1116,0.1209,0.1198,0.126,0.1307,0.1259,0.129,0.1295,0.1326,0.142,0.1394,0.1474,0.1333,0.138,0.1389,0.1465,0.1561,0.1363,0.1688,0.1703,0.1748,0.188,0.1607,0.2007,0.1919,0.1925,0.1929,0,0.1165,0.1233,0.131,0.1399,0.1411,0.1418,0.1485,0.1516,0.16,0.1634,0.1665,0.1679,0.1763,0.1627,0.1794,0.1674,0.1735,0.1771,0.1788,0.1876,0.1811,0.1955,0.2076,0.199,0.1985,0.198,0.1976,0,0.1227,0.1324,0.1407,0.1411,0.1471,0.1504,0.1536,0.159,0.1671,0.1818,0.1912,0.1964,0.2064,0.2089,0.212,0.1998,0.2334,0.218,0.2298,0.2307,0.2173,0.216,0.2329,0.2329,0.2328,0.2326,0.2325,0,0.1301,0.1361,0.1465,0.1506,0.16,0.1609,0.1731,0.1777,0.1907,0.2025,0.2055,0.2178,0.2174,0.2316,0.2292,0.2458,0.2486,0.2406,0.2437,0.2159,0.214,0.2166,0.2141,0.2344,0.234,0.2337,0.2334,0,0.1322,0.1397,0.1496,0.1605,0.1638,0.1698,0.181,0.1908,0.2052,0.222,0.2286,0.244,0.263,0.2663,0.2807,0.2747,0.286,0.2895,0.2639,0.2629,0.2763,0.273,0.3152,0.3157,0.3162,0.3166,0.3169,0,0.1341,0.1408,0.1543,0.1589,0.1629,0.1733,0.1788,0.1935,0.2038,0.2346,0.2429,0.2718,0.2845,0.3153,0.3114,0.3234,0.3105,0.3058,0.2735,0.2863,0.2851,0.281,0.2772,0.2588,0.2586,0.2585,0.2584,0,0.1367,0.1411,0.1494,0.1583,0.1656,0.1738,0.1858,0.197,0.2157,0.2334,0.261,0.2792,0.3092,0.3093,0.3257,0.3225,0.3007,0.304,0.3274,0.239,0.236,0.2336,0.2312,0.2571,0.2572,0.2573,0.2574,0.2574,0.1367,0.1406,0.1523,0.1578,0.1646,0.173,0.1813,0.1907,0.2085,0.2287,0.2543,0.2704,0.2849,0.2958,0.2958,0.2958,0.3123,0.2912,0.2904,0.29,0.2718,0.2692,0.2944,0.2947,0.295,0.2952,0.2954,0,0.137,0.1444,0.1502,0.1594,0.1608,0.1685,0.1833,0.1851,0.1965,0.2131,0.2299,0.2254,0.2365,0.2517,0.253,0.2632,0.2465,0.2502,0.2203,0.2223,0.224,0.2006,0.2053,0.205,0.2046,0.2044,0,0,0.1389,0.1448,0.1462,0.1518,0.1583,0.1611,0.1691,0.1692,0.1764,0.1795,0.1867,0.2073,0.2379,0.2082,0.2147,0.21,0.2098,0.202,0.2751,0.2412,0.2421,0.2513,0.2186,0,0,0,0,0]},{"header":{"parameterUnit":"m.s-1","parameterCategory":2,"la1":30.2991,"la2":30.254,"lo1":-89.0895,"lo2":-89.0444,"dy":0.0017,"dx":0.0017,"nx":28,"ny":28,"refTime":"2025-03-05T03:00:00:Z","depth":"2","parameterNumber":3,"parameterNumberName":"V-component_of_CURRENTS"},"data":[0,0,0,0,0,0,0,0,0,0,0,0,0,0,0,0,0,0,0,0,0,0,0,0,0,0,0,0,0,0,0,0,0,0,0,0,0,0,0,0,0,0,0,0,0,0,0,0,0,0,0,0,0,0,0,0,0,0,-0.0373,-0.0374,0,-0.0456,-0.0458,-0.0459,-0.0553,-0.0554,-0.0554,-0.0555,-0.06,-0.06,-0.0601,0,0,0,0,0,0,0,0,0,0,0,0,0,-0.0323,-0.0324,-0.0373,-0.0374,-0.0374,-0.0456,-0.0458,-0.046,-0.0553,-0.0554,-0.0554,-0.0555,-0.0599,-0.06,-0.0601,0,0,0,0,0,0,0,0,0,0,0,0,0,-0.0377,-0.0325,-0.0373,-0.0424,-0.0429,-0.0455,-0.0458,-0.046,-0.0553,-0.0554,-0.0555,-0.0556,-0.0599,-0.06,-0.0601,-0.0588,0,0,-0.0604,-0.0604,0,0,0,0,0,0,0,0,-0.0374,-0.038,-0.0416,-0.0421,-0.0426,-0.0488,-0.0456,-0.0498,-0.0553,-0.0515,-0.0555,-0.0556,-0.0552,-0.0557,-0.0583,-0.059,-0.0592,-0.0604,-0.0604,-0.0605,-0.0605,0,0,0,0,0,0,0,-0.037,-0.0377,-0.0415,-0.0416,-0.0422,-0.0451,-0.0461,-0.0466,-0.0533,-0.0518,-0.0523,-0.0518,-0.0556,-0.0582,-0.0585,-0.0593,-0.0604,-0.0605,-0.0605,-0.0606,-0.0662,-0.0663,0,0,0,0,0,0,-0.0341,-0.0373,-0.0412,-0.0416,-0.0392,-0.0451,-0.0462,-0.0474,-0.0534,-0.0542,-0.0518,-0.0522,-0.058,-0.0584,-0.0586,-0.0586,-0.0605,-0.0606,-0.0606,-0.0661,-0.0662,-0.0663,0,0,0,0,0,0,-0.034,-0.0344,-0.0408,-0.0389,-0.0398,-0.045,-0.0463,-0.0475,-0.0489,-0.0533,-0.0542,-0.0517,-0.0581,-0.0585,-0.0613,-0.0587,-0.0606,-0.0607,-0.066,-0.0661,-0.0663,-0.0575,0,0,0,0,0,0,-0.0338,-0.0344,-0.0347,-0.0388,-0.0398,-0.0416,-0.0462,-0.0475,-0.0481,-0.0488,-0.0534,-0.0541,-0.0582,-0.0612,-0.0614,-0.0589,-0.0608,-0.0659,-0.066,-0.0662,-0.0577,-0.0574,-0.0571,0,0,0,0,0,-0.0337,-0.0346,-0.0347,-0.0352,-0.04,-0.0415,-0.0424,-0.0469,-0.0479,-0.0485,-0.0536,-0.0539,-0.0625,-0.0613,-0.0615,-0.059,-0.0658,-0.066,-0.0662,-0.0579,-0.0574,-0.0571,0,0,0,0,0,0,-0.0334,-0.0356,-0.0359,-0.0376,-0.0382,-0.0427,-0.0442,-0.0449,-0.0493,-0.0507,-0.0545,-0.0556,-0.0567,-0.0601,-0.0586,-0.062,-0.0642,-0.0645,-0.0578,-0.0575,-0.0572,-0.0582,-0.0608,0,0,0,0,0,-0.0326,-0.0332,-0.035,-0.0356,-0.0365,-0.0391,-0.0401,-0.0423,-0.046,-0.0481,-0.0504,-0.0548,-0.058,-0.0594,-0.0627,-0.0635,-0.0665,-0.0627,-0.0624,-0.0621,-0.0636,-0.0677,-0.0678,-0.067,-0.067,-0.067,0,0,-0.0313,-0.0332,-0.033,-0.0352,-0.0373,-0.0376,-0.0404,-0.0417,-0.043,-0.0474,-0.0504,-0.0524,-0.058,-0.0604,-0.0612,-0.0626,-0.0633,-0.0623,-0.062,-0.0638,-0.068,-0.068,-0.068,-0.0672,-0.0671,-0.0671,0,0,-0.0307,-0.0321,-0.0329,-0.0331,-0.0348,-0.0362,-0.035,-0.0379,-0.0415,-0.0433,-0.0474,-0.0504,-0.0529,-0.0586,-0.0613,-0.0615,-0.0608,-0.0592,-0.0584,-0.0622,-0.0622,-0.0623,-0.0623,-0.0625,-0.0597,-0.0597,-0.0597,0,-0.0292,-0.0311,-0.0328,-0.0337,-0.0326,-0.0343,-0.0333,-0.0375,-0.0404,-0.0423,-0.0439,-0.0492,-0.0541,-0.0576,-0.0593,-0.0606,-0.06,-0.0581,-0.0614,-0.0616,-0.0618,-0.0619,-0.0622,-0.0593,-0.0594,-0.0594,-0.0594,0,-0.0275,-0.03,-0.0306,-0.0314,-0.0301,-0.03,-0.0326,-0.0336,-0.0354,-0.0385,-0.0414,-0.0485,-0.0522,-0.0527,-0.0566,-0.0588,-0.0566,-0.0592,-0.0612,-0.0613,-0.0614,-0.0618,-0.0587,-0.0589,-0.059,-0.0591,0,0,-0.0226,-0.0284,-0.0286,-0.0291,-0.0286,-0.0273,-0.029,-0.0307,-0.0312,-0.0359,-0.0365,-0.0452,-0.047,-0.0507,-0.0535,-0.0576,-0.059,-0.0579,-0.0583,-0.0558,-0.062,-0.0594,-0.0596,-0.059,-0.0591,-0.0592,-0.0598,0,-0.0211,-0.023,-0.0248,-0.0235,-0.0239,-0.0241,-0.0239,-0.0252,-0.0283,-0.03,-0.0386,-0.0409,-0.0469,-0.0465,-0.0521,-0.0568,-0.0603,-0.0584,-0.0644,-0.0646,-0.0606,-0.0603,-0.0588,-0.0591,-0.0602,-0.0603,-0.0604,0,-0.0187,-0.0205,-0.0196,-0.0207,-0.0201,-0.0175,-0.0143,-0.0155,-0.0199,-0.0224,-0.0268,-0.0319,-0.0396,-0.0441,-0.0549,-0.0513,-0.0572,-0.0613,-0.0614,-0.0633,-0.063,-0.0604,-0.0599,-0.0612,-0.0611,-0.0611,-0.061,0,-0.0133,-0.0171,-0.0158,-0.0152,-0.0151,-0.0132,-0.0117,-0.0123,-0.0095,-0.0173,-0.0133,-0.026,-0.0269,-0.0392,-0.0498,-0.0516,-0.0581,-0.0631,-0.066,-0.0657,-0.0687,-0.0684,-0.0715,-0.0715,-0.0715,-0.0715,-0.0715,0,-0.0106,-0.0099,-0.0136,-0.012,-0.0056,-0.008,-0.0005,-0.0026,-0.0003,0.0076,-0.0085,-0.0025,-0.0249,-0.0307,-0.0452,-0.0549,-0.0559,-0.066,-0.0667,-0.0652,-0.0647,-0.0714,-0.0714,-0.0715,-0.0715,-0.0715,-0.0715,0,-0.0042,-0.0079,-0.0058,-0.0058,-0.0031,0.0022,0.0127,0.018,0.0162,0.0271,0.0266,0.0175,0.0078,-0.0121,-0.0298,-0.0445,-0.0582,-0.061,-0.0556,-0.0558,-0.0646,-0.0641,-0.0679,-0.0678,-0.0677,-0.0677,-0.0677,0,-0.0012,-0.0006,0.0025,0.0092,0.0105,0.0187,0.0277,0.0282,0.0372,0.0432,0.0516,0.0432,0.0425,0.0153,-0.0162,-0.0424,-0.0477,-0.0571,-0.0653,-0.0644,-0.0647,-0.0643,-0.064,-0.0641,-0.064,-0.064,-0.0639,0,0.0056,0.0064,0.0097,0.0233,0.033,0.0452,0.0568,0.0678,0.072,0.08,0.0917,0.09,0.0624,0.0333,-0.0062,-0.0252,-0.0553,-0.0567,-0.0577,-0.0648,-0.0609,-0.0611,-0.0609,-0.0635,-0.0635,-0.0635,-0.0636,-0.0636,0.0131,0.0188,0.0245,0.0398,0.0527,0.0712,0.0857,0.0957,0.112,0.1243,0.1207,0.1178,0.0794,0.0292,-0.0062,-0.0452,-0.0454,-0.0616,-0.0618,-0.0621,-0.0611,-0.0573,-0.0588,-0.0588,-0.0588,-0.0589,-0.0589,0,0.022,0.0287,0.0422,0.0603,0.0793,0.0828,0.1068,0.12,0.1392,0.1443,0.149,0.1186,0.0798,0.0395,-0.0176,-0.0527,-0.0586,-0.0633,-0.065,-0.0651,-0.0653,-0.0648,-0.0634,-0.0635,-0.0635,-0.0636,0,0,0.0265,0.0404,0.0486,0.081,0.0961,0.1225,0.1382,0.1531,0.1625,0.1702,0.166,0.145,0.0961,0.0526,0.0024,-0.0284,-0.0378,-0.0347,-0.0276,-0.0237,-0.0235,-0.0613,-0.0601,0,0,0,0,0]}],[{"header":{"parameterUnit":"m.s-1","parameterCategory":2,"la1":30.2991,"la2":30.254,"lo1":-89.0895,"lo2":-89.0444,"dy":0.0017,"dx":0.0017,"nx":28,"ny":28,"refTime":"2025-03-05T03:00:00:Z","depth":"4","parameterNumber":2,"parameterNumberName":"U-component_of_CURRENTS"},"data":[0,0,0,0,0,0,0,0,0,0,0,0,0,0,0,0,0,0,0,0,0,0,0,0,0,0,0,0,0,0,0,0,0,0,0,0,0,0,0,0,0,0,0,0,0,0,0,0,0,0,0,0,0,0,0,0,0,0,0.0137,0.0138,0,0.0219,0.0219,0.0219,0.0244,0.0245,0.0245,0.0245,0.0262,0.0262,0.0262,0,0,0,0,0,0,0,0,0,0,0,0,0,-0.0028,-0.0026,0.0136,0.0138,0.014,0.0219,0.0219,0.0219,0.0244,0.0245,0.0245,0.0246,0.0262,0.0262,0.0262,0,0,0,0,0,0,0,0,0,0,0,0,0,0.004,-0.0025,0.0136,0.0168,0.0172,0.0218,0.0219,0.0219,0.0244,0.0245,0.0245,0.0246,0.0262,0.0262,0.0262,0.0253,0,0,0.0263,0.0263,0,0,0,0,0,0,0,0,0.0036,0.0045,0.0161,0.0166,0.0171,0.0229,0.0168,0.023,0.0244,0.0208,0.0245,0.0246,0.025,0.0251,0.0255,0.0254,0.0254,0.0263,0.0263,0.0263,0.0263,0,0,0,0,0,0,0,0.0031,0.0042,0.0161,0.0164,0.0169,0.0169,0.0178,0.0179,0.0218,0.0211,0.0216,0.0237,0.0251,0.0254,0.0255,0.0255,0.0263,0.0263,0.0263,0.0263,0.0299,0.03,0,0,0,0,0,0,0.0039,0.0038,0.0158,0.0164,0.0113,0.0172,0.0182,0.0203,0.0219,0.0225,0.0237,0.0239,0.0254,0.0255,0.0256,0.0328,0.0263,0.0263,0.0263,0.0298,0.03,0.03,0,0,0,0,0,0,0.0035,0.0049,0.0155,0.0109,0.0123,0.0175,0.0198,0.0205,0.0238,0.0241,0.0244,0.0267,0.0254,0.0256,0.0271,0.0325,0.0263,0.0263,0.0297,0.0299,0.03,0.0419,0,0,0,0,0,0,0.003,0.0047,0.0075,0.0109,0.0127,0.0198,0.0199,0.0206,0.0253,0.0256,0.0267,0.0268,0.0255,0.0271,0.0271,0.0325,0.0263,0.0296,0.0298,0.03,0.0414,0.0424,0.0433,0,0,0,0,0,0.0024,0.0056,0.0076,0.0092,0.016,0.02,0.0208,0.024,0.0254,0.027,0.0274,0.0269,0.0281,0.0271,0.0271,0.0327,0.0296,0.0298,0.0299,0.041,0.0422,0.0433,0,0,0,0,0,0,-0.002,0.0064,0.0086,0.0137,0.0176,0.0208,0.0243,0.0258,0.0275,0.0287,0.0276,0.0276,0.0315,0.0291,0.0281,0.0337,0.0289,0.0291,0.0373,0.0385,0.0394,0.0412,0.0264,0,0,0,0,0,-0.0009,0.0054,0.0104,0.0149,0.0176,0.0213,0.0241,0.0261,0.0282,0.0292,0.0303,0.0308,0.0318,0.0328,0.0329,0.0355,0.038,0.0389,0.0398,0.0407,0.0419,0.049,0.0509,0.0307,0.0307,0.0307,0,0,-0.0007,0.0045,0.0083,0.0149,0.0186,0.0228,0.023,0.0283,0.0317,0.029,0.0342,0.0346,0.0331,0.0367,0.0382,0.0359,0.0483,0.0409,0.0417,0.0425,0.0494,0.0514,0.0532,0.0308,0.0308,0.0308,0,0,0.0007,0.007,0.0119,0.0164,0.0235,0.026,0.0282,0.0332,0.0357,0.0397,0.0393,0.0409,0.0438,0.0429,0.0429,0.0481,0.0532,0.051,0.058,0.0649,0.0668,0.0684,0.0779,0.0802,0.0515,0.0515,0.0516,0,0.0017,0.0067,0.0133,0.0183,0.024,0.0279,0.0329,0.0354,0.04,0.0431,0.0428,0.0498,0.0456,0.0516,0.0525,0.0504,0.0585,0.0544,0.0667,0.0683,0.0697,0.079,0.0815,0.0521,0.0521,0.052,0.052,0,0.0053,0.0103,0.0138,0.0227,0.0291,0.0342,0.0402,0.0447,0.049,0.0518,0.0604,0.0583,0.0623,0.0621,0.0584,0.0683,0.0724,0.0677,0.0649,0.0726,0.0818,0.0842,0.053,0.0528,0.0526,0.0525,0,0,0.0078,0.0149,0.0173,0.021,0.0327,0.0376,0.0454,0.0528,0.0588,0.0646,0.0734,0.0737,0.0764,0.0762,0.0755,0.0802,0.0942,0.0803,0.0804,0.0918,0.1173,0.1126,0.1147,0.0964,0.0968,0.0971,0.1211,0,0.0095,0.0162,0.022,0.0309,0.0353,0.0442,0.0518,0.06,0.0664,0.0748,0.0779,0.0854,0.0813,0.0862,0.0906,0.0927,0.1007,0.0884,0.1062,0.1067,0.1032,0.1172,0.0983,0.1229,0.1234,0.1238,0.1241,0,0.0128,0.0168,0.0244,0.0348,0.0387,0.0462,0.0622,0.0689,0.0805,0.087,0.0973,0.1007,0.1091,0.1034,0.1181,0.1138,0.1171,0.1191,0.12,0.1127,0.1063,0.1122,0.1283,0.128,0.1277,0.1274,0.1271,0,0.0113,0.0201,0.0259,0.0303,0.0424,0.0503,0.0592,0.0732,0.0829,0.0968,0.1072,0.1175,0.1267,0.1331,0.1356,0.1309,0.1529,0.1442,0.1453,0.1451,0.1366,0.1346,0.1565,0.1565,0.1564,0.1564,0.1563,0,0.0122,0.0173,0.0255,0.0292,0.0415,0.0514,0.0673,0.0768,0.0935,0.1065,0.1148,0.1281,0.1358,0.1471,0.1462,0.156,0.1623,0.1514,0.1521,0.1413,0.1395,0.1386,0.1362,0.1573,0.1571,0.1569,0.1568,0,0.0112,0.0149,0.0219,0.0342,0.0407,0.051,0.0745,0.0845,0.1009,0.1191,0.1259,0.143,0.159,0.1661,0.177,0.1714,0.1769,0.1782,0.1728,0.1719,0.1626,0.1605,0.1835,0.1836,0.1836,0.1837,0.1837,0,0.0104,0.0124,0.0267,0.0346,0.0417,0.0582,0.0709,0.0886,0.1007,0.1267,0.1352,0.1572,0.1666,0.1825,0.1864,0.1937,0.1885,0.1919,0.1709,0.1676,0.166,0.1638,0.1617,0.1838,0.1838,0.1838,0.1838,0,0.0087,0.0141,0.0223,0.0378,0.0512,0.0659,0.0839,0.093,0.1132,0.1271,0.1445,0.1542,0.1738,0.1814,0.1919,0.1924,0.1886,0.1922,0.1918,0.1722,0.1681,0.166,0.1639,0.184,0.184,0.1839,0.1839,0,0.0094,0.0173,0.0284,0.0442,0.0578,0.0707,0.0801,0.0964,0.1105,0.1346,0.1395,0.159,0.1728,0.1815,0.1881,0.1929,0.1871,0.1766,0.1769,0.1768,0.1627,0.1558,0.1735,0,0,0,0,0,0.0102,0.0217,0.0345,0.0511,0.0625,0.0711,0.0885,0.0966,0.113,0.1231,0.1317,0.1471,0.1617,0.1709,0.1748,0.1857,0.1876,0.1893,0.1754,0.1849,0.1847,0.1682,0,0,0,0,0,0,0.0125,0.0244,0.035,0.052,0.0625,0.0764,0.0857,0.0962,0.1033,0.1182,0.1275,0.1382,0.155,0.1587,0.1717,0.1749,0.1634,0.2004,0.2001,0.185,0.1848,0.1847,0.1677,0,0,0,0,0]},{"header":{"parameterUnit":"m.s-1","parameterCategory":2,"la1":30.2991,"la2":30.254,"lo1":-89.0895,"lo2":-89.0444,"dy":0.0017,"dx":0.0017,"nx":28,"ny":28,"refTime":"2025-03-05T03:00:00:Z","depth":"4","parameterNumber":3,"parameterNumberName":"V-component_of_CURRENTS"},"data":[0,0,0,0,0,0,0,0,0,0,0,0,0,0,0,0,0,0,0,0,0,0,0,0,0,0,0,0,0,0,0,0,0,0,0,0,0,0,0,0,0,0,0,0,0,0,0,0,0,0,0,0,0,0,0,0,0,0,0.0461,0.046,0,0.0462,0.0462,0.0463,0.044,0.0439,0.0438,0.0437,0.0287,0.0284,0.028,0,0,0,0,0,0,0,0,0,0,0,0,0,0.0466,0.0466,0.0461,0.046,0.046,0.0462,0.0462,0.0463,0.044,0.0439,0.0438,0.0437,0.0288,0.0284,0.028,0,0,0,0,0,0,0,0,0,0,0,0,0,0.0468,0.0466,0.0461,0.0446,0.0445,0.0462,0.0462,0.0463,0.044,0.0439,0.0438,0.0436,0.0289,0.0284,0.028,0.0279,0,0,0.0265,0.0263,0,0,0,0,0,0,0,0,0.0468,0.0469,0.0449,0.0447,0.0445,0.0446,0.0409,0.0393,0.0441,0.0446,0.0437,0.0436,0.0324,0.0317,0.0328,0.0272,0.0266,0.0265,0.0262,0.026,0.0259,0,0,0,0,0,0,0,0.0468,0.0469,0.0465,0.0448,0.0446,0.0449,0.0448,0.0407,0.0393,0.0445,0.0443,0.0438,0.0323,0.0333,0.0323,0.0264,0.0265,0.0261,0.0258,0.0256,0.0136,0.0135,0,0,0,0,0,0,0.0461,0.0468,0.0465,0.0465,0.0449,0.0449,0.0448,0.045,0.0397,0.0388,0.0439,0.0436,0.0341,0.0329,0.0318,0.0251,0.026,0.0256,0.0253,0.0136,0.0136,0.0135,0,0,0,0,0,0,0.0461,0.0461,0.0465,0.0463,0.0463,0.045,0.0453,0.0451,0.043,0.0393,0.0381,0.0415,0.034,0.0324,0.0276,0.0246,0.0254,0.0249,0.0137,0.0136,0.0136,0.0156,0,0,0,0,0,0,0.0461,0.0461,0.0457,0.0463,0.0463,0.0456,0.0454,0.0452,0.0429,0.0425,0.0369,0.0356,0.0337,0.0283,0.0271,0.024,0.0246,0.0137,0.0136,0.0136,0.0156,0.0156,0.0156,0,0,0,0,0,0.0462,0.0453,0.0458,0.0456,0.0459,0.0455,0.0456,0.0444,0.0429,0.042,0.0393,0.0356,0.0269,0.028,0.0265,0.0232,0.0138,0.0137,0.0136,0.0156,0.0156,0.0156,0,0,0,0,0,0,0.047,0.045,0.0455,0.0446,0.0445,0.0449,0.043,0.043,0.0406,0.0385,0.0357,0.0343,0.0284,0.0261,0.0274,0.0197,0.0194,0.019,0.0214,0.0214,0.0214,0.0214,0.0242,0,0,0,0,0,0.0469,0.0444,0.0446,0.044,0.0428,0.0428,0.0421,0.0414,0.0397,0.0384,0.0349,0.0309,0.0277,0.0248,0.0211,0.0173,0.0151,0.0141,0.0141,0.0141,0.0133,0.0093,0.0089,0.0132,0.0132,0.0132,0,0,0.0467,0.0456,0.0441,0.0437,0.0427,0.0424,0.0419,0.0394,0.0404,0.0367,0.0343,0.0299,0.0266,0.0228,0.0199,0.02,0.0121,0.014,0.0141,0.0132,0.0092,0.0088,0.0084,0.0132,0.0132,0.0132,0,0,0.0465,0.044,0.0426,0.0415,0.0395,0.0395,0.0381,0.0368,0.0368,0.0351,0.0325,0.0304,0.0225,0.0234,0.0221,0.0208,0.0121,0.0137,0.0138,0.0101,0.0097,0.0093,0.0074,0.0069,0.0141,0.0141,0.0141,0,0.0454,0.0464,0.0425,0.0416,0.0404,0.0378,0.0376,0.0381,0.036,0.036,0.0336,0.0255,0.0258,0.0226,0.0224,0.0214,0.0138,0.0142,0.0101,0.0097,0.0093,0.0074,0.0068,0.0142,0.0142,0.0142,0.0142,0,0.0454,0.046,0.0442,0.0423,0.0403,0.0387,0.0381,0.0371,0.0353,0.0355,0.0302,0.0293,0.025,0.0237,0.0227,0.0174,0.0112,0.0105,0.0102,0.009,0.0071,0.0064,0.0143,0.0143,0.0143,0.0142,0,0,0.0424,0.044,0.0436,0.0451,0.0402,0.0396,0.039,0.0395,0.0401,0.035,0.0353,0.0314,0.0263,0.0246,0.0207,0.0176,0.0135,0.0095,0.0093,0.0081,-0.0004,-0.005,-0.0062,0.0053,0.0052,0.0051,0.0001,0,0.0437,0.0461,0.045,0.0462,0.0463,0.0433,0.0443,0.043,0.0411,0.0407,0.0373,0.0346,0.0276,0.0244,0.0191,0.0154,0.0107,0.0147,0.0006,0.0004,-0.0033,-0.0073,0.0046,-0.0005,-0.0006,-0.0008,-0.0008,0,0.044,0.0458,0.0488,0.0512,0.0505,0.0503,0.049,0.0496,0.0477,0.046,0.0381,0.0332,0.0291,0.0244,0.0119,0.0102,0.0035,-0.0001,-0.0003,-0.0063,-0.0057,0.0005,-0.0022,-0.0021,-0.002,-0.0019,-0.0018,0,0.0453,0.0484,0.0521,0.0517,0.0529,0.0537,0.0531,0.0504,0.0515,0.048,0.046,0.0359,0.0325,0.0202,0.0098,0.0082,-0.0052,-0.0033,-0.0142,-0.0144,-0.0093,-0.0089,-0.0134,-0.0134,-0.0133,-0.0133,-0.0133,0,0.0463,0.0486,0.0541,0.0552,0.0585,0.0563,0.0579,0.0569,0.0552,0.0546,0.0466,0.0414,0.0287,0.0185,0.009,-0.0071,-0.0056,-0.016,-0.0174,-0.008,-0.0074,-0.0097,-0.0092,-0.0135,-0.0135,-0.0134,-0.0134,0,0.0458,0.0498,0.0544,0.0586,0.0597,0.0606,0.0613,0.0627,0.0594,0.0582,0.0569,0.0455,0.0313,0.0181,0.0035,-0.0063,-0.0178,-0.0244,-0.0137,-0.014,-0.0236,-0.0229,-0.033,-0.0332,-0.0334,-0.0336,-0.0337,0,0.0467,0.0498,0.0568,0.0596,0.0612,0.0633,0.0652,0.0644,0.0651,0.0586,0.0585,0.0447,0.0352,0.0124,-0.0031,-0.0212,-0.0255,-0.0308,-0.028,-0.026,-0.0262,-0.0252,-0.0243,-0.034,-0.0341,-0.0341,-0.0342,0,0.0471,0.0501,0.0539,0.0613,0.0647,0.0692,0.0714,0.0726,0.0707,0.0678,0.0595,0.0459,0.029,0.0113,-0.0059,-0.0192,-0.0255,-0.0329,-0.0324,-0.0298,-0.0274,-0.0272,-0.0261,-0.0349,-0.0348,-0.0347,-0.0347,0,0.0476,0.0502,0.0574,0.0627,0.0683,0.0742,0.0748,0.0754,0.0757,0.0693,0.0648,0.0469,0.0355,0.0117,-0.0037,-0.0179,-0.0197,-0.022,-0.0221,-0.0216,-0.0184,-0.0136,-0.0196,0,0,0,0,0,0.0492,0.0527,0.0586,0.0665,0.0722,0.0772,0.0797,0.0799,0.0775,0.0733,0.0701,0.0548,0.029,0.0164,0.0021,-0.0071,-0.0224,-0.0246,-0.025,-0.0387,-0.0379,-0.0368,0,0,0,0,0,0,0.0488,0.0553,0.059,0.069,0.076,0.0838,0.0867,0.0851,0.0827,0.0768,0.0639,0.0531,0.0289,0.04,0.0034,-0.002,-0.0042,-0.0377,-0.038,-0.0391,-0.0384,-0.0378,-0.0364,0,0,0,0,0]}]]